Location: Hackbridge
(51.3833°N, 0.1500°W)
Time: 15:48:45
(UTC+00:00)

STARLINK-25 - Pass Details

Date: 13 October 2019
Orbit: 548 x 552 km, 53.0° (Epoch: 11 November)

Event Time Altitude Azimuth Distance (km) Brightness Sun altitude
Rises 18:27:19 0° 222° (SW) 2,706 7.8 -12.4°
Reaches altitude 10° 18:29:38 10° 214° (SW) 1,816 6.7 -12.8°
Maximum altitude 18:33:28 38° 146° (SSE) 849 4.3 -13.4°
Enters shadow 18:35:27 23° 94° (E) 1,190 4.7 -13.7°
